Home > Weather > Burlington > Past weeks

Flag for Canada Past Weather in Burlington, Ontario, Canada — Yesterday and Last 2 Weeks

Now
66 °F

Mild.


Feels Like: 66 °F
Forecast: 61 / 74 °F
Wind: 10 mph from North

Location: Burlington Piers

Current Time: Jun 29, 2016 at 10:37:31 AM

Latest Report: Jun 29, 2016 at 10:00 AM


Visibility: N/A

Pressure: 29.99 "Hg

Humidity: 59%

Dew Point: 51 °F

Location of BurlingtonLocation

Past Weather in Burlington — Graph

°F

Burlington Temperature Yesterday

Maximum temperature yesterday: 72 °F (at 1:00 AM)
Minimum temperature yesterday: 63 °F (at 7:00 AM)
Average temperature yesterday: 67 °F

High & Low Weather Summary for the Past Weeks

 TemperatureHumidityPressure
High88 °F (Jun 19, 4:00 PM)90% (Jun 26, 4:00 AM)30.27 "Hg (Jun 26, 4:00 AM)
Low53 °F (Jun 14, 9:00 AM)26% (Jun 19, 5:00 PM)29.72 "Hg (Jun 16, 3:00 PM)
Average69 °F57%29.97 "Hg
* Reported Jun 14 9:00 AM — Jun 29 9:00 AM, Burlington, Weather by CustomWeather, © 2016

Note: Actual official high and low records may vary slightly from our data, if they occured in-between our weather recording intervals... More about our weather records

Advertising

Burlington Weather History for the Previous 24 Hours

Scroll right to see more
 ConditionsComfort  
Time TempWeatherWind HumidityBarometerVisibility
9:00 AM
Wed, Jun 29
64 °FMild.6 mph65%30.01 "HgN/A
8:00 AM61 °FCool.7 mph67%30.00 "HgN/A
7:00 AM58 °FCool.7 mph71%29.98 "HgN/A
6:00 AM59 °FCool.5 mph70%29.98 "HgN/A
5:00 AM59 °FCool.6 mph68%29.97 "HgN/A
4:00 AM59 °FCool.6 mph66%29.97 "HgN/A
3:00 AM60 °FCool.5 mph63%29.97 "HgN/A
2:00 AM62 °FMild.2 mph62%29.97 "HgN/A
1:00 AM62 °FCool.5 mph61%29.98 "HgN/A
12:00 AM63 °FMild.7 mph60%29.98 "HgN/A
11:00 PM
Tue, Jun 28
64 °FMild.8 mph61%29.98 "HgN/A
10:00 PM66 °FMild.8 mph66%29.97 "HgN/A
9:00 PM66 °FMild.8 mph68%29.96 "HgN/A
8:00 PM66 °FMild.15 mph66%29.95 "HgN/A
7:00 PM69 °FMild.12 mph56%29.94 "HgN/A
6:00 PM70 °FMild.8 mph58%29.93 "HgN/A
5:00 PM71 °FMild.10 mph55%29.93 "HgN/A
4:00 PM68 °FMild.7 mph61%29.93 "HgN/A
3:00 PM67 °FMild.7 mph61%29.95 "HgN/A
2:00 PM67 °FMild.8 mph61%29.96 "HgN/A
12:00 PM67 °FMild.6 mph64%29.96 "HgN/A
11:00 AM66 °FMild.8 mph65%29.96 "HgN/A
10:00 AM65 °FMild.6 mph68%29.95 "HgN/A
Weather by CustomWeather, © 2016

See weather overviewHow to use our weather pages